[[{"header":{"parameterUnit":"m.s-1","parameterCategory":1,"la1":30.2991,"la2":30.254,"lo1":-89.0895,"lo2":-89.0444,"dy":0.0017,"dx":0.0017,"nx":28,"ny":28,"refTime":"2024-08-22T03:00:00:Z","depth":0,"parameterNumber":2,"parameterNumberName":"U-component_of_WINDS"},"data":[0,0,0,0,0,0,0,0,0,0,0,0,0,0,0,0,0,0,0,0,0,0,0,0,0,0,0,0,0,0,0,0,0,0,0,0,0,0,0,0,0,0,0,0,0,0,0,0,0,0,0,0,0,0,0,0,0,0,-5.3017,-5.3017,0,-5.3057,-5.3057,-5.3058,-5.2962,-5.2959,-5.2956,-5.2953,-5.2996,-5.3,-5.3004,0,0,0,0,0,0,0,0,0,0,0,0,0,-5.2859,-5.2862,-5.3017,-5.3017,-5.3018,-5.3057,-5.3057,-5.3058,-5.2963,-5.2959,-5.2955,-5.2952,-5.2995,-5.2999,-5.3004,0,0,0,0,0,0,0,0,0,0,0,0,0,-5.2916,-5.2863,-5.3017,-5.2975,-5.2971,-5.3057,-5.3057,-5.3058,-5.2963,-5.2959,-5.2954,-5.295,-5.2993,-5.2999,-5.3005,-5.3133,0,0,-5.3023,-5.3026,0,0,0,0,0,0,0,0,-5.2913,-5.2922,-5.298,-5.2978,-5.2974,-5.3,-5.3017,-5.3083,-5.2964,-5.2966,-5.2953,-5.2948,-5.3001,-5.3006,-5.3024,-5.3135,-5.3137,-5.3024,-5.3027,-5.303,-5.3032,0,0,0,0,0,0,0,-5.2909,-5.292,-5.3032,-5.2981,-5.2978,-5.2955,-5.2958,-5.3029,-5.3009,-5.2966,-5.2959,-5.2965,-5.2999,-5.3018,-5.3024,-5.3138,-5.3024,-5.3029,-5.3033,-5.3035,-5.3357,-5.3362,0,0,0,0,0,0,-5.291,-5.2917,-5.3031,-5.3034,-5.2932,-5.2961,-5.2964,-5.2996,-5.3008,-5.3005,-5.2969,-5.296,-5.301,-5.3017,-5.3025,-5.3177,-5.303,-5.3035,-5.3039,-5.3353,-5.3359,-5.3364,0,0,0,0,0,0,-5.2907,-5.2922,-5.303,-5.2974,-5.2986,-5.2969,-5.3005,-5.2999,-5.3019,-5.301,-5.3006,-5.2993,-5.3007,-5.3017,-5.3107,-5.3177,-5.3038,-5.3044,-5.3347,-5.3354,-5.3361,-5.3481,0,0,0,0,0,0,-5.2903,-5.2921,-5.2969,-5.2975,-5.2989,-5.3111,-5.3009,-5.3003,-5.3029,-5.3019,-5.3031,-5.3029,-5.3004,-5.3099,-5.3113,-5.3183,-5.3048,-5.334,-5.335,-5.3359,-5.3471,-5.3491,-5.3509,0,0,0,0,0,-5.2898,-5.3001,-5.2972,-5.2986,-5.3049,-5.3115,-5.3123,-5.3091,-5.3035,-5.3084,-5.3078,-5.3029,-5.3167,-5.3109,-5.3124,-5.3197,-5.3336,-5.3347,-5.3358,-5.3462,-5.3487,-5.3509,0,0,0,0,0,0,-5.3004,-5.3001,-5.2969,-5.3077,-5.3097,-5.3098,-5.3159,-5.3119,-5.3155,-5.3144,-5.3104,-5.3108,-5.3206,-5.321,-5.3145,-5.3322,-5.3242,-5.3257,-5.3316,-5.334,-5.3359,-5.3356,-5.3053,0,0,0,0,0,-5.304,-5.3093,-5.3088,-5.3184,-5.3196,-5.3176,-5.3204,-5.3178,-5.3197,-5.3205,-5.3206,-5.3227,-5.3275,-5.3307,-5.3351,-5.3471,-5.3473,-5.3528,-5.3547,-5.3563,-5.3577,-5.3641,-5.3666,-5.3401,-5.3401,-5.3401,0,0,-5.3115,-5.312,-5.3156,-5.3206,-5.3218,-5.3275,-5.3184,-5.3247,-5.3289,-5.3214,-5.33,-5.3302,-5.3322,-5.3428,-5.3475,-5.3435,-5.3651,-5.3578,-5.3591,-5.3595,-5.3655,-5.3681,-5.3703,-5.3408,-5.3407,-5.3406,0,0,-5.328,-5.3289,-5.3371,-5.3385,-5.3404,-5.339,-5.341,-5.3418,-5.3416,-5.3501,-5.3447,-5.3496,-5.358,-5.3597,-5.3617,-5.379,-5.3746,-5.3806,-5.3907,-5.397,-5.3991,-5.401,-5.4072,-5.4095,-5.3819,-5.3819,-5.3819,0,-5.3371,-5.3454,-5.3418,-5.3485,-5.3509,-5.3444,-5.3526,-5.3542,-5.3576,-5.3594,-5.3548,-5.3652,-5.3662,-5.3771,-5.3813,-5.3831,-5.3853,-5.3804,-5.3991,-5.4009,-5.4026,-5.4085,-5.4108,-5.3826,-5.3826,-5.3825,-5.3824,0,-5.3565,-5.3623,-5.3687,-5.372,-5.3751,-5.3826,-5.3802,-5.3838,-5.381,-5.3801,-5.3889,-5.3898,-5.3943,-5.3967,-5.394,-5.4073,-5.4048,-5.3997,-5.3916,-5.4059,-5.4114,-5.4136,-5.3837,-5.3834,-5.3832,-5.383,0,0,-5.3798,-5.3811,-5.3835,-5.3849,-5.3867,-5.3911,-5.3984,-5.4027,-5.4059,-5.4085,-5.4145,-5.4218,-5.4171,-5.4194,-5.4169,-5.4224,-5.4362,-5.4167,-5.4167,-5.4203,-5.451,-5.4548,-5.4575,-5.4333,-5.4337,-5.434,-5.4509,0,-5.3962,-5.4086,-5.4056,-5.4178,-5.4232,-5.4172,-5.4235,-5.4253,-5.4247,-5.4292,-5.4286,-5.4338,-5.4273,-5.4286,-5.4338,-5.4334,-5.4423,-5.4321,-5.439,-5.4392,-5.4387,-5.4604,-5.4644,-5.4802,-5.453,-5.4533,-5.4536,0,-5.417,-5.4203,-5.4331,-5.434,-5.4362,-5.4419,-5.4457,-5.4501,-5.452,-5.4512,-5.4538,-5.4502,-5.4575,-5.4493,-5.4593,-5.4525,-5.4551,-5.4553,-5.4559,-5.4564,-5.4473,-5.4616,-5.4852,-5.4876,-5.4569,-5.4567,-5.4564,0,-5.4328,-5.4404,-5.4491,-5.4506,-5.4518,-5.456,-5.4567,-5.4582,-5.4611,-5.4644,-5.4662,-5.4704,-5.4727,-5.476,-5.4737,-5.468,-5.4842,-5.4758,-5.4838,-5.4839,-5.4875,-5.4873,-5.5119,-5.4891,-5.4891,-5.489,-5.489,0,-5.4514,-5.4595,-5.4562,-5.4616,-5.4705,-5.467,-5.476,-5.476,-5.4774,-5.4828,-5.4778,-5.4829,-5.4794,-5.4843,-5.4825,-5.4912,-5.4922,-5.4918,-5.4913,-5.4923,-5.4924,-5.494,-5.4929,-5.4897,-5.4895,-5.4894,-5.4893,0,-5.4706,-5.4687,-5.4778,-5.4782,-5.4785,-5.4851,-5.4855,-5.4906,-5.4896,-5.4964,-5.4978,-5.4964,-5.5018,-5.4998,-5.5057,-5.5045,-5.5155,-5.5135,-5.5148,-5.5144,-5.5225,-5.5218,-5.5491,-5.5525,-5.5275,-5.5277,-5.5279,0,-5.4826,-5.4887,-5.4898,-5.493,-5.4941,-5.4993,-5.5021,-5.499,-5.5022,-5.5049,-5.5096,-5.5146,-5.5185,-5.5276,-5.5271,-5.5316,-5.5297,-5.5389,-5.5303,-5.5312,-5.5299,-5.5296,-5.5302,-5.5407,-5.5409,-5.5412,-5.5414,0,-5.5042,-5.503,-5.5073,-5.5113,-5.5149,-5.5179,-5.5205,-5.5234,-5.5203,-5.5242,-5.5297,-5.5327,-5.5387,-5.5438,-5.5478,-5.5486,-5.5446,-5.5441,-5.5462,-5.5473,-5.5479,-5.5478,-5.5196,-5.5435,-5.5433,-5.5431,-5.543,-5.5429,-5.5202,-5.5254,-5.527,-5.532,-5.5336,-5.5361,-5.5409,-5.5405,-5.545,-5.5496,-5.5475,-5.5539,-5.5558,-5.5608,-5.5622,-5.5672,-5.5636,-5.5667,-5.5675,-5.5683,-5.5694,-5.5471,-5.568,-5.5679,-5.5678,-5.5678,-5.5677,0,-5.5416,-5.5424,-5.547,-5.5507,-5.5547,-5.5504,-5.5531,-5.5567,-5.5624,-5.5644,-5.5683,-5.5747,-5.5797,-5.5796,-5.5842,-5.5883,-5.5866,-5.5896,-5.5893,-5.5896,-5.5723,-5.57,-5.5909,-5.5909,-5.5909,-5.5909,-5.5909,-5.5909,-5.5532,-5.5618,-5.5608,-5.5701,-5.5707,-5.5769,-5.5788,-5.5812,-5.5828,-5.5902,-5.5942,-5.5941,-5.5954,-5.6001,-5.6045,-5.6043,-5.6063,-5.6101,-5.6093,-5.5931,-5.5908,-5.5886,-5.5865,-5.6105,-5.6106,-5.6262,-5.6263,-5.6264]},{"header":{"parameterUnit":"m.s-1","parameterCategory":1,"la1":30.2991,"la2":30.254,"lo1":-89.0895,"lo2":-89.0444,"dy":0.0017,"dx":0.0017,"nx":28,"ny":28,"refTime":"2024-08-22T03:00:00:Z","depth":0,"parameterNumber":3,"parameterNumberName":"V-component_of_WINDS"},"data":[0,0,0,0,0,0,0,0,0,0,0,0,0,0,0,0,0,0,0,0,0,0,0,0,0,0,0,0,0,0,0,0,0,0,0,0,0,0,0,0,0,0,0,0,0,0,0,0,0,0,0,0,0,0,0,0,0,0,-2.4184,-2.4184,0,-2.4242,-2.4243,-2.4243,-2.4226,-2.4225,-2.4224,-2.4223,-2.4283,-2.4286,-2.4288,0,0,0,0,0,0,0,0,0,0,0,0,0,-2.4057,-2.4059,-2.4184,-2.4184,-2.4185,-2.4242,-2.4243,-2.4244,-2.4227,-2.4225,-2.4224,-2.4222,-2.4282,-2.4285,-2.4289,0,0,0,0,0,0,0,0,0,0,0,0,0,-2.4113,-2.406,-2.4184,-2.4184,-2.4184,-2.4242,-2.4243,-2.4244,-2.4227,-2.4225,-2.4223,-2.4222,-2.4281,-2.4285,-2.4289,-2.435,0,0,-2.4301,-2.4303,0,0,0,0,0,0,0,0,-2.411,-2.4118,-2.4183,-2.4184,-2.4184,-2.4225,-2.422,-2.428,-2.4227,-2.4211,-2.4223,-2.4221,-2.4265,-2.427,-2.4285,-2.4353,-2.4356,-2.4302,-2.4304,-2.4306,-2.4307,0,0,0,0,0,0,0,-2.4106,-2.4115,-2.4207,-2.4184,-2.4185,-2.418,-2.4186,-2.4231,-2.4247,-2.4212,-2.4211,-2.4218,-2.4265,-2.4281,-2.4287,-2.4357,-2.4302,-2.4305,-2.4308,-2.4309,-2.4477,-2.4479,0,0,0,0,0,0,-2.4102,-2.4112,-2.4205,-2.4209,-2.4142,-2.4184,-2.4191,-2.4214,-2.4247,-2.425,-2.422,-2.4217,-2.4275,-2.4282,-2.4289,-2.4362,-2.4306,-2.431,-2.4312,-2.4475,-2.4477,-2.448,0,0,0,0,0,0,-2.4099,-2.411,-2.4203,-2.416,-2.4172,-2.4188,-2.4214,-2.4216,-2.4232,-2.4253,-2.4255,-2.4233,-2.4274,-2.4283,-2.4335,-2.4364,-2.4312,-2.4315,-2.4473,-2.4476,-2.4478,-2.4511,0,0,0,0,0,0,-2.4096,-2.4109,-2.4133,-2.4161,-2.4174,-2.4248,-2.4216,-2.4218,-2.4239,-2.4237,-2.4266,-2.4269,-2.4273,-2.4329,-2.4339,-2.4369,-2.4319,-2.447,-2.4474,-2.4477,-2.4507,-2.4514,-2.4521,0,0,0,0,0,-2.4091,-2.414,-2.4134,-2.4146,-2.4204,-2.425,-2.4257,-2.4261,-2.4242,-2.4266,-2.4278,-2.4268,-2.4359,-2.4334,-2.4346,-2.4377,-2.4468,-2.4473,-2.4477,-2.4504,-2.4513,-2.452,0,0,0,0,0,0,-2.4116,-2.4144,-2.4138,-2.4197,-2.4221,-2.4247,-2.4277,-2.4271,-2.4301,-2.4297,-2.4301,-2.4307,-2.4361,-2.4374,-2.4346,-2.4438,-2.4411,-2.4418,-2.4427,-2.4436,-2.4443,-2.4438,-2.4322,0,0,0,0,0,-2.4128,-2.4163,-2.4186,-2.4236,-2.4248,-2.4261,-2.4281,-2.4282,-2.4307,-2.4317,-2.4334,-2.4358,-2.4392,-2.4415,-2.4447,-2.4509,-2.4515,-2.4536,-2.4542,-2.4548,-2.4554,-2.4587,-2.4596,-2.4494,-2.4494,-2.4494,0,0,-2.4154,-2.4173,-2.4195,-2.4241,-2.426,-2.4296,-2.4269,-2.4309,-2.4335,-2.4323,-2.4373,-2.4386,-2.4414,-2.4471,-2.4496,-2.4483,-2.4583,-2.4554,-2.4558,-2.4561,-2.4592,-2.4602,-2.4611,-2.4497,-2.4497,-2.4496,0,0,-2.4219,-2.4238,-2.4281,-2.43,-2.4329,-2.4337,-2.4347,-2.4374,-2.4382,-2.4432,-2.4423,-2.4455,-2.4514,-2.4534,-2.4552,-2.4624,-2.4615,-2.4634,-2.467,-2.4702,-2.471,-2.4717,-2.4742,-2.4752,-2.464,-2.464,-2.464,0,-2.4248,-2.4302,-2.4305,-2.4345,-2.4365,-2.4355,-2.4398,-2.4417,-2.4455,-2.4469,-2.4454,-2.4527,-2.4545,-2.4606,-2.4623,-2.4638,-2.465,-2.4631,-2.4708,-2.4716,-2.4722,-2.4747,-2.4756,-2.4642,-2.4642,-2.4642,-2.4642,0,-2.4335,-2.4373,-2.4405,-2.4441,-2.4465,-2.4507,-2.4515,-2.4539,-2.4537,-2.4547,-2.4598,-2.4619,-2.4655,-2.467,-2.4669,-2.473,-2.4721,-2.4707,-2.468,-2.4734,-2.4757,-2.4766,-2.4645,-2.4645,-2.4644,-2.4643,0,0,-2.4419,-2.4455,-2.4467,-2.4483,-2.4514,-2.4543,-2.4584,-2.4619,-2.4639,-2.4665,-2.4699,-2.4749,-2.4736,-2.4756,-2.4757,-2.4785,-2.4841,-2.4768,-2.4769,-2.4781,-2.491,-2.492,-2.4931,-2.4835,-2.4837,-2.4838,-2.4907,0,-2.4487,-2.4559,-2.4562,-2.4628,-2.4662,-2.4653,-2.4688,-2.4711,-2.472,-2.4751,-2.4761,-2.4796,-2.4776,-2.4789,-2.4816,-2.4828,-2.4867,-2.4823,-2.4867,-2.4869,-2.4861,-2.4943,-2.4954,-2.5018,-2.4916,-2.4918,-2.4919,0,-2.4576,-2.4604,-2.4674,-2.4698,-2.4713,-2.4745,-2.4777,-2.4806,-2.4831,-2.4836,-2.4859,-2.4855,-2.4897,-2.4868,-2.4926,-2.4896,-2.4914,-2.4923,-2.4925,-2.493,-2.4897,-2.4949,-2.5039,-2.5048,-2.4933,-2.4932,-2.4931,0,-2.463,-2.4685,-2.4734,-2.4748,-2.4778,-2.4801,-2.4814,-2.4837,-2.4858,-2.4886,-2.49,-2.4932,-2.495,-2.4975,-2.4981,-2.496,-2.5038,-2.501,-2.5043,-2.5043,-2.5061,-2.506,-2.5154,-2.5072,-2.5072,-2.5072,-2.5072,0,-2.4705,-2.4748,-2.4758,-2.4788,-2.4835,-2.4838,-2.4885,-2.4897,-2.4917,-2.4949,-2.4942,-2.4972,-2.4978,-2.5009,-2.5013,-2.506,-2.5068,-2.5073,-2.5074,-2.5074,-2.5073,-2.5086,-2.5082,-2.5075,-2.5074,-2.5074,-2.5073,0,-2.4773,-2.4782,-2.4834,-2.4858,-2.4865,-2.4899,-2.4919,-2.4947,-2.4956,-2.4996,-2.5006,-2.5019,-2.5055,-2.5063,-2.5106,-2.5109,-2.5164,-2.5161,-2.5156,-2.5156,-2.5189,-2.5185,-2.5295,-2.5309,-2.5218,-2.5219,-2.5219,0,-2.4821,-2.4854,-2.4881,-2.4902,-2.4916,-2.495,-2.4971,-2.4974,-2.4997,-2.5027,-2.5052,-2.5087,-2.5115,-2.5173,-2.5187,-2.522,-2.5217,-2.5253,-2.5222,-2.522,-2.5217,-2.5215,-2.5218,-2.5259,-2.526,-2.5261,-2.5261,0,-2.4905,-2.4907,-2.4938,-2.497,-2.4995,-2.502,-2.5044,-2.5062,-2.5069,-2.5094,-2.5131,-2.5153,-2.5196,-2.5231,-2.5264,-2.5278,-2.5271,-2.5271,-2.528,-2.5281,-2.5276,-2.5279,-2.5172,-2.5268,-2.5268,-2.5267,-2.5267,-2.5266,-2.4964,-2.4992,-2.5016,-2.505,-2.5068,-2.5091,-2.5118,-2.513,-2.5161,-2.5196,-2.5197,-2.5237,-2.526,-2.5303,-2.5319,-2.535,-2.5339,-2.5352,-2.5356,-2.5359,-2.5362,-2.5271,-2.5356,-2.5356,-2.5355,-2.5355,-2.5355,0,-2.5048,-2.5062,-2.5093,-2.5127,-2.5153,-2.5144,-2.517,-2.5193,-2.5228,-2.5251,-2.5278,-2.532,-2.5354,-2.537,-2.5403,-2.5425,-2.5423,-2.5434,-2.5432,-2.5435,-2.537,-2.5359,-2.5435,-2.5435,-2.5435,-2.5435,-2.5435,-2.5435,-2.5094,-2.5141,-2.5146,-2.5202,-2.5216,-2.5255,-2.527,-2.5291,-2.5309,-2.5356,-2.5384,-2.5393,-2.5413,-2.5448,-2.5478,-2.5482,-2.5494,-2.5507,-2.5509,-2.5448,-2.544,-2.5432,-2.5421,-2.551,-2.551,-2.5572,-2.5572,-2.5573]}]]